Change the Weather History Date:

Wednesday, August 14, 2013

  Actual Average Record
Temperature  
Mean Temperature 66 °F 68 °F  
Max Temperature 83 °F 82 °F 94 °F (1937)
Min Temperature 49 °F 55 °F 45 °F (1951)
Degree Days  
Heating Degree Days 0 1  
Month to date heating degree days 8 14  
Since 1 June heating degree days 77 170  
Since 1 July heating degree days 15 36  
Cooling Degree Days 1 4  
Month to date cooling degree days 40 66  
Year to date cooling degree days 323 276  
Since 1 June cooling degree days 317 273  
Growing Degree Days 16 (Base 50)    
Moisture  
Dew Point 44 °F    
Average Humidity 55    
Maximum Humidity 89    
Minimum Humidity 20    
Precipitation  
Precipitation 0.03 in 0.07 in 1.37 in (1890)
Month to date precipitation 0.87 1.07  
Year to date precipitation 8.11 11.57  
Snow  
Snow 0.00 in 0.00 in 1.00 in (1949)
Month to date snowfall 0.0 0.0  
Since 1 July snowfall 0.0 0.0  
Snow Depth 0.00 in    
Sea Level Pressure  
Sea Level Pressure 30.05 in    
Wind  
Wind Speed 7 mph (SW)    
Max Wind Speed 20 mph    
Max Gust Speed 33 mph    
Visibility 10 miles    
Events Thunderstorm    
T = Trace of Precipitation, MM = Missing Value Source: NWS Daily Summary

Daily Weather History Graph

Daily Weather History Graph

Search for Another Location

Airport or City:

Trip Planner

Search our weather history database for the weather conditions in past years. The results will help you decide how hot, cold, wet, or windy it might be!

Date:

Astronomy

Aug. 14, 2013 Rise Set
Actual Time 6:08 AM MDT 7:58 PM MDT
Civil Twilight 5:38 AM MDT 8:28 PM MDT
Nautical Twilight 5:02 AM MDT 9:04 PM MDT
Astronomical Twilight 4:23 AM MDT 9:43 PM MDT
Moon 2:14 PM MDT (8/14) No Moon Set
Length of Visible Light 14h 50m
Length of Day
13h 50m
First Quarter, 53% of the Moon is Illuminated
Aug 14
First Quarter
Aug 20
Full
Aug 28
Last Quarter
Sep 5
New
Sep 12
First Quarter

Hourly Weather History & Observations

Time (MDT) Temp. Dew Point Humidity Pressure Visibility Wind Dir Wind Speed Gust Speed Precip Events Conditions
12:53 AM 57.9 °F 50.0 °F 75% 30.11 in 10.0 mi ENE 8.1 mph - N/A   Mostly Cloudy
1:53 AM 54.0 °F 48.9 °F 83% 30.09 in 10.0 mi ESE 8.1 mph - N/A   Clear
2:53 AM 53.1 °F 48.9 °F 86% 30.09 in 10.0 mi SE 4.6 mph - N/A   Clear
3:53 AM 52.0 °F 48.9 °F 89% 30.08 in 10.0 mi West 6.9 mph - N/A   Clear
4:53 AM 50.0 °F 46.9 °F 89% 30.07 in 10.0 mi West 9.2 mph - N/A   Clear
5:53 AM 50.0 °F 46.0 °F 86% 30.07 in 10.0 mi West 8.1 mph - N/A   Clear
6:53 AM 51.1 °F 45.0 °F 80% 30.08 in 10.0 mi WSW 5.8 mph - N/A   Clear
7:53 AM 57.0 °F 45.0 °F 64% 30.09 in 10.0 mi West 6.9 mph - N/A   Clear
8:53 AM 64.0 °F 45.0 °F 50% 30.08 in 10.0 mi West 6.9 mph - N/A   Clear
9:53 AM 70.0 °F 43.0 °F 38% 30.06 in 10.0 mi Calm Calm - N/A   Clear
10:53 AM 75.9 °F 39.9 °F 27% 30.04 in 10.0 mi North 8.1 mph - N/A   Clear
11:53 AM 75.9 °F 39.0 °F 26% 30.02 in 10.0 mi Variable 6.9 mph - N/A   Partly Cloudy
12:53 PM 77.0 °F 39.0 °F 25% 30.01 in 10.0 mi Variable 4.6 mph - N/A   Partly Cloudy
1:53 PM 80.1 °F 37.0 °F 21% 30.00 in 10.0 mi North 4.6 mph - N/A   Partly Cloudy
2:53 PM 78.1 °F 36.0 °F 22% 29.99 in 10.0 mi Calm Calm - N/A   Scattered Clouds
3:53 PM 80.1 °F 35.1 °F 20% 29.96 in 10.0 mi Calm Calm - N/A   Partly Cloudy
4:06 PM 78.8 °F 33.8 °F 20% 30.19 in 10.0 mi South 6.9 mph - N/A Thunderstorm Partly Cloudy
4:23 PM 75.2 °F 46.4 °F 36% 30.19 in 10.0 mi South 15.0 mph 21.9 mph N/A   Mostly Cloudy
4:53 PM 73.9 °F 46.0 °F 37% 29.99 in 10.0 mi South 12.7 mph - N/A   Mostly Cloudy
5:40 PM 71.6 °F 44.6 °F 38% 30.21 in 10.0 mi SW 15.0 mph - N/A Thunderstorm Mostly Cloudy
5:53 PM 71.1 °F 46.0 °F 41% 30.00 in 10.0 mi SW 15.0 mph 26.5 mph N/A Thunderstorm Mostly Cloudy
6:53 PM 66.9 °F 46.0 °F 47% 30.04 in 10.0 mi Variable 4.6 mph - 0.03 in   Mostly Cloudy
7:53 PM 61.0 °F 48.0 °F 62% 30.02 in 10.0 mi SE 8.1 mph - N/A   Clear
8:53 PM 59.0 °F 48.0 °F 67% 30.03 in 10.0 mi SSW 6.9 mph - N/A   Clear
9:53 PM 57.9 °F 48.0 °F 70% 30.04 in 10.0 mi WSW 9.2 mph - N/A   Clear
10:53 PM 57.0 °F 46.9 °F 69% 30.01 in 10.0 mi West 6.9 mph - N/A   Clear
11:53 PM 55.9 °F 46.0 °F 69% 30.01 in 10.0 mi West 10.4 mph - N/A   Clear